2019-092T00:41:23.825,   1,   3,   1,   120,   4,          0,     12.975,  47481.658,    53.523,    -7.424,     1.142,    18.550, 3, 1.000E+00,  1.00,  78,  1.154E-03,  7.168E-03, -9.999E+09, -9.999E+09, -9.999E+09, -9.999E+09, -9.999E+09, -9.999E+09, -9.999E+09, -9.999E+09, -9.999E+09, -9.999E+09, -9.999E+09, -9.999E+09, -9.999E+09, -9.999E+09, -9.999E+09, -9.999E+09, 255
2019-092T00:51:23.832,   1,   3,   1,   120,   4,          0,     12.975,  47481.658,    53.474,    -7.414,     1.142,    12.502, 3, 1.000E+00,  1.00,  78,  1.039E-03,  7.168E-03, -9.999E+09, -9.999E+09, -9.999E+09, -9.999E+09, -9.999E+09, -9.999E+09, -9.999E+09, -9.999E+09, -9.999E+09, -9.999E+09, -9.999E+09, -9.999E+09, -9.999E+09, -9.999E+09, -9.999E+09, -9.999E+09, 255
2019-092T00:53:23.834,   1,   3,   1,   120,   4,          0,     12.975,  47481.658,    53.464,    -7.412,     1.142,    11.293, 3, 1.000E+00,  1.00,  78,  1.093E-03,  7.168E-03, -9.999E+09, -9.999E+09, -9.999E+09, -9.999E+09, -9.999E+09, -9.999E+09, -9.999E+09, -9.999E+09, -9.999E+09, -9.999E+09, -9.999E+09, -9.999E+09, -9.999E+09, -9.999E+09, -9.999E+09, -9.999E+09, 255
2019-092T01:07:23.843,   1,   3,   1,   120,   4,          0,     12.975,  47481.658,    53.396,    -7.398,     1.142,     2.827, 3, 1.000E+00,  1.00,  78,  1.018E-03,  7.168E-03, -9.999E+09, -9.999E+09, -9.999E+09, -9.999E+09, -9.999E+09, -9.999E+09, -9.999E+09, -9.999E+09, -9.999E+09, -9.999E+09, -9.999E+09, -9.999E+09, -9.999E+09, -9.999E+09, -9.999E+09, -9.999E+09, 255
2019-092T01:17:23.850,   1,   3,   1,   120,   4,          0,     12.975,  47481.658,    53.347,    -7.388,     1.141,   356.779, 3, 1.000E+00,  1.00,  78,  1.189E-03,  7.168E-03, -9.999E+09, -9.999E+09, -9.999E+09, -9.999E+09, -9.999E+09, -9.999E+09, -9.999E+09, -9.999E+09, -9.999E+09, -9.999E+09, -9.999E+09, -9.999E+09, -9.999E+09, -9.999E+09, -9.999E+09, -9.999E+09, 255
2019-092T01:21:23.853,   1,   3,   1,   120,   4,          0,     12.975,  47481.658,    53.328,    -7.384,     1.141,   354.360, 3, 1.000E+00,  1.00,  78,  1.252E-03,  7.168E-03, -9.999E+09, -9.999E+09, -9.999E+09, -9.999E+09, -9.999E+09, -9.999E+09, -9.999E+09, -9.999E+09, -9.999E+09, -9.999E+09, -9.999E+09, -9.999E+09, -9.999E+09, -9.999E+09, -9.999E+09, -9.999E+09, 255
2019-092T01:31:23.860,   1,   3,   1,   120,   4,          0,     12.975,  47481.658,    53.279,    -7.374,     1.141,   348.313, 3, 1.000E+00,  1.00,  78,  1.070E-03,  7.168E-03, -9.999E+09, -9.999E+09, -9.999E+09, -9.999E+09, -9.999E+09, -9.999E+09, -9.999E+09, -9.999E+09, -9.999E+09, -9.999E+09, -9.999E+09, -9.999E+09, -9.999E+09, -9.999E+09, -9.999E+09, -9.999E+09, 255
2019-092T01:37:23.864,   1,   3,   1,   120,   4,          0,     12.975,  47481.658,    53.249,    -7.368,     1.141,   344.684, 3, 1.000E+00,  1.00,  78,  1.464E-03,  7.168E-03, -9.999E+09, -9.999E+09, -9.999E+09, -9.999E+09, -9.999E+09, -9.999E+09, -9.999E+09, -9.999E+09, -9.999E+09, -9.999E+09, -9.999E+09, -9.999E+09, -9.999E+09, -9.999E+09, -9.999E+09, -9.999E+09, 255
2019-092T02:39:23.908,   1,   3,   1,   120,   4,          0,     12.975,  47481.658,    52.945,    -7.304,     1.140,   307.190, 3, 1.000E+00,  1.00,  78,  1.200E-03,  7.167E-03, -9.999E+09, -9.999E+09, -9.999E+09, -9.999E+09, -9.999E+09, -9.999E+09, -9.999E+09, -9.999E+09, -9.999E+09, -9.999E+09, -9.999E+09, -9.999E+09, -9.999E+09, -9.999E+09, -9.999E+09, -9.999E+09, 255
2019-092T02:49:23.915,   1,   3,   1,   120,   4,          0,     12.975,  47481.658,    52.896,    -7.294,     1.140,   301.143, 3, 1.000E+00,  1.00,  78,  1.458E-03,  7.168E-03, -9.999E+09, -9.999E+09, -9.999E+09, -9.999E+09, -9.999E+09, -9.999E+09, -9.999E+09, -9.999E+09, -9.999E+09, -9.999E+09, -9.999E+09, -9.999E+09, -9.999E+09, -9.999E+09, -9.999E+09, -9.999E+09, 255
2019-092T02:53:23.918,   1,   3,   1,   120,   4,          0,     12.975,  47481.658,    52.876,    -7.290,     1.140,   298.724, 3, 1.000E+00,  1.00,  78,  1.050E-03,  7.168E-03, -9.999E+09, -9.999E+09, -9.999E+09, -9.999E+09, -9.999E+09, -9.999E+09, -9.999E+09, -9.999E+09, -9.999E+09, -9.999E+09, -9.999E+09, -9.999E+09, -9.999E+09, -9.999E+09, -9.999E+09, -9.999E+09, 255
2019-092T03:07:23.927,   1,   3,   1,   120,   4,          0,     12.975,  47481.658,    52.807,    -7.275,     1.139,   290.258, 3, 1.000E+00,  1.00,  78,  1.186E-03,  7.168E-03, -9.999E+09, -9.999E+09, -9.999E+09, -9.999E+09, -9.999E+09, -9.999E+09, -9.999E+09, -9.999E+09, -9.999E+09, -9.999E+09, -9.999E+09, -9.999E+09, -9.999E+09, -9.999E+09, -9.999E+09, -9.999E+09, 255
2019-092T03:13:23.932,   1,   3,   1,   120,   4,          0,     12.975,  47481.658,    52.778,    -7.269,     1.139,   286.629, 3, 1.000E+00,  1.00,  78,  1.066E-03,  7.168E-03, -9.999E+09, -9.999E+09, -9.999E+09, -9.999E+09, -9.999E+09, -9.999E+09, -9.999E+09, -9.999E+09, -9.999E+09, -9.999E+09, -9.999E+09, -9.999E+09, -9.999E+09, -9.999E+09, -9.999E+09, -9.999E+09, 255
2019-092T03:33:23.946,   1,   3,   1,   120,   4,          0,     12.975,  47481.658,    52.679,    -7.248,     1.139,   274.534, 3, 1.000E+00,  1.00,  78,  1.076E-03,  7.168E-03, -9.999E+09, -9.999E+09, -9.999E+09, -9.999E+09, -9.999E+09, -9.999E+09, -9.999E+09, -9.999E+09, -9.999E+09, -9.999E+09, -9.999E+09, -9.999E+09, -9.999E+09, -9.999E+09, -9.999E+09, -9.999E+09, 255
2019-092T03:35:23.947,   1,   3,   1,   120,   4,          0,     12.975,  47481.658,    52.669,    -7.246,     1.139,   273.325, 3, 1.000E+00,  1.00,  78,  1.298E-03,  7.168E-03, -9.999E+09, -9.999E+09, -9.999E+09, -9.999E+09, -9.999E+09, -9.999E+09, -9.999E+09, -9.999E+09, -9.999E+09, -9.999E+09, -9.999E+09, -9.999E+09, -9.999E+09, -9.999E+09, -9.999E+09, -9.999E+09, 255
2019-092T03:37:23.949,   1,   3,   1,   120,   4,          0,     12.975,  47481.658,    52.659,    -7.244,     1.139,   272.115, 3, 1.000E+00,  1.00,  78,  1.392E-03,  7.168E-03, -9.999E+09, -9.999E+09, -9.999E+09, -9.999E+09, -9.999E+09, -9.999E+09, -9.999E+09, -9.999E+09, -9.999E+09, -9.999E+09, -9.999E+09, -9.999E+09, -9.999E+09, -9.999E+09, -9.999E+09, -9.999E+09, 255
2019-092T03:39:23.950,   1,   3,   1,   120,   4,          0,     12.975,  47481.658,    52.649,    -7.242,     1.139,   270.906, 3, 1.000E+00,  1.00,  78,  1.267E-03,  7.168E-03, -9.999E+09, -9.999E+09, -9.999E+09, -9.999E+09, -9.999E+09, -9.999E+09, -9.999E+09, -9.999E+09, -9.999E+09, -9.999E+09, -9.999E+09, -9.999E+09, -9.999E+09, -9.999E+09, -9.999E+09, -9.999E+09, 255
2019-092T03:43:23.953,   1,   3,   1,   120,   4,          0,     12.975,  47481.658,    52.630,    -7.238,     1.139,   268.487, 3, 1.000E+00,  1.00,  78,  2.024E-03,  7.168E-03, -9.999E+09, -9.999E+09, -9.999E+09, -9.999E+09, -9.999E+09, -9.999E+09, -9.999E+09, -9.999E+09, -9.999E+09, -9.999E+09, -9.999E+09, -9.999E+09, -9.999E+09, -9.999E+09, -9.999E+09, -9.999E+09, 255
2019-092T03:45:23.954,   1,   3,   1,   120,   4,          0,     12.975,  47481.658,    52.620,    -7.236,     1.139,   267.277, 3, 1.000E+00,  1.00,  78,  1.891E-03,  7.168E-03, -9.999E+09, -9.999E+09, -9.999E+09, -9.999E+09, -9.999E+09, -9.999E+09, -9.999E+09, -9.999E+09, -9.999E+09, -9.999E+09, -9.999E+09, -9.999E+09, -9.999E+09, -9.999E+09, -9.999E+09, -9.999E+09, 255
2019-092T03:47:23.956,   1,   3,   1,   120,   4,          0,     12.975,  47481.658,    52.610,    -7.234,     1.139,   266.068, 3, 1.000E+00,  1.00,  78,  2.093E-03,  7.168E-03, -9.999E+09, -9.999E+09, -9.999E+09, -9.999E+09, -9.999E+09, -9.999E+09, -9.999E+09, -9.999E+09, -9.999E+09, -9.999E+09, -9.999E+09, -9.999E+09, -9.999E+09, -9.999E+09, -9.999E+09, -9.999E+09, 255
2019-092T03:49:23.957,   1,   3,   1,   120,   4,          0,     12.975,  47481.658,    52.600,    -7.232,     1.139,   264.858, 3, 1.000E+00,  1.00,  78,  1.070E-03,  7.168E-03, -9.999E+09, -9.999E+09, -9.999E+09, -9.999E+09, -9.999E+09, -9.999E+09, -9.999E+09, -9.999E+09, -9.999E+09, -9.999E+09, -9.999E+09, -9.999E+09, -9.999E+09, -9.999E+09, -9.999E+09, -9.999E+09, 255
2019-092T03:51:23.958,   1,   3,   1,   120,   4,          0,     12.975,  47481.658,    52.590,    -7.230,     1.139,   263.649, 3, 1.000E+00,  1.00,  78,  1.544E-03,  7.168E-03, -9.999E+09, -9.999E+09, -9.999E+09, -9.999E+09, -9.999E+09, -9.999E+09, -9.999E+09, -9.999E+09, -9.999E+09, -9.999E+09, -9.999E+09, -9.999E+09, -9.999E+09, -9.999E+09, -9.999E+09, -9.999E+09, 255
2019-092T03:53:23.960,   1,   3,   1,   120,   4,          0,     12.975,  47481.658,    52.580,    -7.227,     1.139,   262.439, 3, 1.000E+00,  1.00,  78,  1.708E-03,  7.168E-03, -9.999E+09, -9.999E+09, -9.999E+09, -9.999E+09, -9.999E+09, -9.999E+09, -9.999E+09, -9.999E+09, -9.999E+09, -9.999E+09, -9.999E+09, -9.999E+09, -9.999E+09, -9.999E+09, -9.999E+09, -9.999E+09, 255
2019-092T03:55:23.961,   1,   3,   1,   120,   4,          0,     12.975,  47481.658,    52.570,    -7.225,     1.139,   261.230, 3, 1.000E+00,  1.00,  78,  2.361E-03,  7.168E-03, -9.999E+09, -9.999E+09, -9.999E+09, -9.999E+09, -9.999E+09, -9.999E+09, -9.999E+09, -9.999E+09, -9.999E+09, -9.999E+09, -9.999E+09, -9.999E+09, -9.999E+09, -9.999E+09, -9.999E+09, -9.999E+09, 255
2019-092T03:57:23.963,   1,   3,   1,   120,   4,          0,     12.975,  47481.658,    52.560,    -7.223,     1.139,   260.020, 3, 1.000E+00,  1.00,  78,  2.803E-03,  7.168E-03, -9.999E+09, -9.999E+09, -9.999E+09, -9.999E+09, -9.999E+09, -9.999E+09, -9.999E+09, -9.999E+09, -9.999E+09, -9.999E+09, -9.999E+09, -9.999E+09, -9.999E+09, -9.999E+09, -9.999E+09, -9.999E+09, 255
2019-092T03:59:23.964,   1,   3,   1,   120,   4,          0,     12.975,  47481.658,    52.550,    -7.221,     1.139,   258.811, 3, 1.000E+00,  1.00,  78,  1.826E-03,  7.168E-03, -9.999E+09, -9.999E+09, -9.999E+09, -9.999E+09, -9.999E+09, -9.999E+09, -9.999E+09, -9.999E+09, -9.999E+09, -9.999E+09, -9.999E+09, -9.999E+09, -9.999E+09, -9.999E+09, -9.999E+09, -9.999E+09, 255
2019-092T04:01:23.965,   1,   3,   1,   120,   4,          0,     12.975,  47481.658,    52.540,    -7.219,     1.139,   257.601, 3, 1.000E+00,  1.00,  78,  1.964E-03,  7.168E-03, -9.999E+09, -9.999E+09, -9.999E+09, -9.999E+09, -9.999E+09, -9.999E+09, -9.999E+09, -9.999E+09, -9.999E+09, -9.999E+09, -9.999E+09, -9.999E+09, -9.999E+09, -9.999E+09, -9.999E+09, -9.999E+09, 255
2019-092T04:03:23.967,   1,   3,   1,   120,   4,          0,     12.975,  47481.658,    52.531,    -7.217,     1.139,   256.392, 3, 1.000E+00,  1.00,  78,  1.689E-03,  7.168E-03, -9.999E+09, -9.999E+09, -9.999E+09, -9.999E+09, -9.999E+09, -9.999E+09, -9.999E+09, -9.999E+09, -9.999E+09, -9.999E+09, -9.999E+09, -9.999E+09, -9.999E+09, -9.999E+09, -9.999E+09, -9.999E+09, 255
2019-092T04:05:23.968,   1,   3,   1,   120,   4,          0,     12.975,  47481.658,    52.521,    -7.215,     1.139,   255.182, 3, 1.000E+00,  1.00,  78,  3.356E-03,  7.168E-03, -9.999E+09, -9.999E+09, -9.999E+09, -9.999E+09, -9.999E+09, -9.999E+09, -9.999E+09, -9.999E+09, -9.999E+09, -9.999E+09, -9.999E+09, -9.999E+09, -9.999E+09, -9.999E+09, -9.999E+09, -9.999E+09, 255
2019-092T04:07:23.970,   1,   3,   1,   120,   4,          0,     12.975,  47481.658,    52.511,    -7.213,     1.139,   253.973, 3, 1.000E+00,  1.00,  78,  4.071E-03,  7.168E-03, -9.999E+09, -9.999E+09, -9.999E+09, -9.999E+09, -9.999E+09, -9.999E+09, -9.999E+09, -9.999E+09, -9.999E+09, -9.999E+09, -9.999E+09, -9.999E+09, -9.999E+09, -9.999E+09, -9.999E+09, -9.999E+09, 255
2019-092T04:09:23.971,   1,   3,   1,   120,   4,          0,     12.975,  47481.658,    52.501,    -7.211,     1.138,   252.763, 3, 1.000E+00,  1.00,  78,  2.602E-03,  7.168E-03, -9.999E+09, -9.999E+09, -9.999E+09, -9.999E+09, -9.999E+09, -9.999E+09, -9.999E+09, -9.999E+09, -9.999E+09, -9.999E+09, -9.999E+09, -9.999E+09, -9.999E+09, -9.999E+09, -9.999E+09, -9.999E+09, 255
2019-092T04:11:23.972,   1,   3,   1,   120,   4,          0,     12.975,  47481.658,    52.491,    -7.209,     1.138,   251.554, 3, 1.000E+00,  1.00,  78,  2.481E-03,  7.168E-03, -9.999E+09, -9.999E+09, -9.999E+09, -9.999E+09, -9.999E+09, -9.999E+09, -9.999E+09, -9.999E+09, -9.999E+09, -9.999E+09, -9.999E+09, -9.999E+09, -9.999E+09, -9.999E+09, -9.999E+09, -9.999E+09, 255
2019-092T04:13:23.974,   1,   3,   1,   120,   4,          0,     12.975,  47481.658,    52.481,    -7.207,     1.138,   250.344, 3, 1.000E+00,  1.00,  78,  2.853E-03,  7.168E-03, -9.999E+09, -9.999E+09, -9.999E+09, -9.999E+09, -9.999E+09, -9.999E+09, -9.999E+09, -9.999E+09, -9.999E+09, -9.999E+09, -9.999E+09, -9.999E+09, -9.999E+09, -9.999E+09, -9.999E+09, -9.999E+09, 255
2019-092T04:15:23.975,   1,   3,   1,   120,   4,          0,     12.975,  47481.658,    52.471,    -7.204,     1.138,   249.135, 3, 1.000E+00,  1.00,  78,  2.884E-03,  7.168E-03, -9.999E+09, -9.999E+09, -9.999E+09, -9.999E+09, -9.999E+09, -9.999E+09, -9.999E+09, -9.999E+09, -9.999E+09, -9.999E+09, -9.999E+09, -9.999E+09, -9.999E+09, -9.999E+09, -9.999E+09, -9.999E+09, 255
2019-092T04:17:23.977,   1,   3,   1,   120,   4,          0,     12.975,  47481.658,    52.461,    -7.202,     1.138,   247.925, 3, 1.000E+00,  1.00,  78,  2.332E-03,  7.168E-03, -9.999E+09, -9.999E+09, -9.999E+09, -9.999E+09, -9.999E+09, -9.999E+09, -9.999E+09, -9.999E+09, -9.999E+09, -9.999E+09, -9.999E+09, -9.999E+09, -9.999E+09, -9.999E+09, -9.999E+09, -9.999E+09, 255
2019-092T04:19:23.978,   1,   3,   1,   120,   4,          0,     12.975,  47481.658,    52.451,    -7.200,     1.138,   246.716, 3, 1.000E+00,  1.00,  78,  2.656E-03,  7.168E-03, -9.999E+09, -9.999E+09, -9.999E+09, -9.999E+09, -9.999E+09, -9.999E+09, -9.999E+09, -9.999E+09, -9.999E+09, -9.999E+09, -9.999E+09, -9.999E+09, -9.999E+09, -9.999E+09, -9.999E+09, -9.999E+09, 255
2019-092T04:21:23.979,   1,   3,   1,   120,   4,          0,     12.975,  47481.658,    52.441,    -7.198,     1.138,   245.506, 3, 1.000E+00,  1.00,  78,  2.076E-03,  7.168E-03, -9.999E+09, -9.999E+09, -9.999E+09, -9.999E+09, -9.999E+09, -9.999E+09, -9.999E+09, -9.999E+09, -9.999E+09, -9.999E+09, -9.999E+09, -9.999E+09, -9.999E+09, -9.999E+09, -9.999E+09, -9.999E+09, 255
2019-092T04:23:23.981,   1,   3,   1,   120,   4,          0,     12.975,  47481.658,    52.431,    -7.196,     1.138,   244.297, 3, 1.000E+00,  1.00,  78,  2.855E-03,  7.168E-03, -9.999E+09, -9.999E+09, -9.999E+09, -9.999E+09, -9.999E+09, -9.999E+09, -9.999E+09, -9.999E+09, -9.999E+09, -9.999E+09, -9.999E+09, -9.999E+09, -9.999E+09, -9.999E+09, -9.999E+09, -9.999E+09, 255
2019-092T04:25:23.982,   1,   3,   1,   120,   4,          0,     12.975,  47481.658,    52.421,    -7.194,     1.138,   243.087, 3, 1.000E+00,  1.00,  78,  2.852E-03,  7.168E-03, -9.999E+09, -9.999E+09, -9.999E+09, -9.999E+09, -9.999E+09, -9.999E+09, -9.999E+09, -9.999E+09, -9.999E+09, -9.999E+09, -9.999E+09, -9.999E+09, -9.999E+09, -9.999E+09, -9.999E+09, -9.999E+09, 255
2019-092T04:27:23.984,   1,   3,   1,   120,   4,          0,     12.975,  47481.658,    52.411,    -7.192,     1.138,   241.878, 3, 1.000E+00,  1.00,  78,  2.733E-03,  7.168E-03, -9.999E+09, -9.999E+09, -9.999E+09, -9.999E+09, -9.999E+09, -9.999E+09, -9.999E+09, -9.999E+09, -9.999E+09, -9.999E+09, -9.999E+09, -9.999E+09, -9.999E+09, -9.999E+09, -9.999E+09, -9.999E+09, 255
2019-092T04:29:23.985,   1,   3,   1,   120,   4,          0,     12.975,  47481.658,    52.402,    -7.190,     1.138,   240.668, 3, 1.000E+00,  1.00,  78,  3.275E-03,  7.168E-03, -9.999E+09, -9.999E+09, -9.999E+09, -9.999E+09, -9.999E+09, -9.999E+09, -9.999E+09, -9.999E+09, -9.999E+09, -9.999E+09, -9.999E+09, -9.999E+09, -9.999E+09, -9.999E+09, -9.999E+09, -9.999E+09, 255
2019-092T04:31:23.986,   1,   3,   1,   120,   4,          0,     12.975,  47481.658,    52.392,    -7.188,     1.138,   239.459, 3, 1.000E+00,  1.00,  78,  3.287E-03,  7.168E-03, -9.999E+09, -9.999E+09, -9.999E+09, -9.999E+09, -9.999E+09, -9.999E+09, -9.999E+09, -9.999E+09, -9.999E+09, -9.999E+09, -9.999E+09, -9.999E+09, -9.999E+09, -9.999E+09, -9.999E+09, -9.999E+09, 255
2019-092T04:33:23.988,   1,   3,   1,   120,   4,          0,     12.975,  47481.658,    52.382,    -7.186,     1.138,   238.249, 3, 1.000E+00,  1.00,  78,  3.126E-03,  7.168E-03, -9.999E+09, -9.999E+09, -9.999E+09, -9.999E+09, -9.999E+09, -9.999E+09, -9.999E+09, -9.999E+09, -9.999E+09, -9.999E+09, -9.999E+09, -9.999E+09, -9.999E+09, -9.999E+09, -9.999E+09, -9.999E+09, 255
2019-092T04:35:23.989,   1,   3,   1,   120,   4,          0,     12.975,  47481.658,    52.372,    -7.183,     1.138,   237.040, 3, 1.000E+00,  1.00,  78,  3.236E-03,  7.168E-03, -9.999E+09, -9.999E+09, -9.999E+09, -9.999E+09, -9.999E+09, -9.999E+09, -9.999E+09, -9.999E+09, -9.999E+09, -9.999E+09, -9.999E+09, -9.999E+09, -9.999E+09, -9.999E+09, -9.999E+09, -9.999E+09, 255
2019-092T04:37:23.991,   1,   3,   1,   120,   4,          0,     12.975,  47481.658,    52.362,    -7.181,     1.138,   235.830, 3, 1.000E+00,  1.00,  78,  3.065E-03,  7.168E-03, -9.999E+09, -9.999E+09, -9.999E+09, -9.999E+09, -9.999E+09, -9.999E+09, -9.999E+09, -9.999E+09, -9.999E+09, -9.999E+09, -9.999E+09, -9.999E+09, -9.999E+09, -9.999E+09, -9.999E+09, -9.999E+09, 255
2019-092T04:39:23.992,   1,   3,   1,   120,   4,          0,     12.975,  47481.658,    52.352,    -7.179,     1.138,   234.621, 3, 1.000E+00,  1.00,  78,  3.274E-03,  7.168E-03, -9.999E+09, -9.999E+09, -9.999E+09, -9.999E+09, -9.999E+09, -9.999E+09, -9.999E+09, -9.999E+09, -9.999E+09, -9.999E+09, -9.999E+09, -9.999E+09, -9.999E+09, -9.999E+09, -9.999E+09, -9.999E+09, 255
2019-092T04:41:23.993,   1,   3,   1,   120,   4,          0,     12.975,  47481.658,    52.342,    -7.177,     1.138,   233.411, 3, 1.000E+00,  1.00,  78,  3.093E-03,  7.168E-03, -9.999E+09, -9.999E+09, -9.999E+09, -9.999E+09, -9.999E+09, -9.999E+09, -9.999E+09, -9.999E+09, -9.999E+09, -9.999E+09, -9.999E+09, -9.999E+09, -9.999E+09, -9.999E+09, -9.999E+09, -9.999E+09, 255
2019-092T04:43:23.995,   1,   3,   1,   120,   4,          0,     12.975,  47481.658,    52.332,    -7.175,     1.138,   232.202, 3, 1.000E+00,  1.00,  78,  2.415E-03,  7.168E-03, -9.999E+09, -9.999E+09, -9.999E+09, -9.999E+09, -9.999E+09, -9.999E+09, -9.999E+09, -9.999E+09, -9.999E+09, -9.999E+09, -9.999E+09, -9.999E+09, -9.999E+09, -9.999E+09, -9.999E+09, -9.999E+09, 255
2019-092T04:45:23.996,   1,   3,   1,   120,   4,          0,     12.975,  47481.658,    52.322,    -7.173,     1.138,   230.992, 3, 1.000E+00,  1.00,  78,  2.937E-03,  7.168E-03, -9.999E+09, -9.999E+09, -9.999E+09, -9.999E+09, -9.999E+09, -9.999E+09, -9.999E+09, -9.999E+09, -9.999E+09, -9.999E+09, -9.999E+09, -9.999E+09, -9.999E+09, -9.999E+09, -9.999E+09, -9.999E+09, 255
2019-092T04:47:23.998,   1,   3,   1,   120,   4,          0,     12.975,  47481.658,    52.312,    -7.171,     1.138,   229.783, 3, 1.000E+00,  1.00,  78,  3.514E-03,  7.168E-03, -9.999E+09, -9.999E+09, -9.999E+09, -9.999E+09, -9.999E+09, -9.999E+09, -9.999E+09, -9.999E+09, -9.999E+09, -9.999E+09, -9.999E+09, -9.999E+09, -9.999E+09, -9.999E+09, -9.999E+09, -9.999E+09, 255
2019-092T04:49:23.999,   1,   3,   1,   120,   4,          0,     12.975,  47481.658,    52.302,    -7.169,     1.138,   228.573, 3, 1.000E+00,  1.00,  78,  3.039E-03,  7.168E-03, -9.999E+09, -9.999E+09, -9.999E+09, -9.999E+09, -9.999E+09, -9.999E+09, -9.999E+09, -9.999E+09, -9.999E+09, -9.999E+09, -9.999E+09, -9.999E+09, -9.999E+09, -9.999E+09, -9.999E+09, -9.999E+09, 255
2019-092T04:51:24.000,   1,   3,   1,   120,   4,          0,     12.975,  47481.658,    52.292,    -7.167,     1.138,   227.364, 3, 1.000E+00,  1.00,  78,  2.573E-03,  7.168E-03, -9.999E+09, -9.999E+09, -9.999E+09, -9.999E+09, -9.999E+09, -9.999E+09, -9.999E+09, -9.999E+09, -9.999E+09, -9.999E+09, -9.999E+09, -9.999E+09, -9.999E+09, -9.999E+09, -9.999E+09, -9.999E+09, 255
2019-092T04:53:24.002,   1,   3,   1,   120,   4,          0,     12.975,  47481.658,    52.282,    -7.165,     1.138,   226.154, 3, 1.000E+00,  1.00,  78,  3.054E-03,  7.168E-03, -9.999E+09, -9.999E+09, -9.999E+09, -9.999E+09, -9.999E+09, -9.999E+09, -9.999E+09, -9.999E+09, -9.999E+09, -9.999E+09, -9.999E+09, -9.999E+09, -9.999E+09, -9.999E+09, -9.999E+09, -9.999E+09, 255
2019-092T04:55:24.003,   1,   3,   1,   120,   4,          0,     12.975,  47481.658,    52.272,    -7.162,     1.138,   224.945, 3, 1.000E+00,  1.00,  78,  2.585E-03,  7.168E-03, -9.999E+09, -9.999E+09, -9.999E+09, -9.999E+09, -9.999E+09, -9.999E+09, -9.999E+09, -9.999E+09, -9.999E+09, -9.999E+09, -9.999E+09, -9.999E+09, -9.999E+09, -9.999E+09, -9.999E+09, -9.999E+09, 255
2019-092T04:57:24.005,   1,   3,   1,   120,   4,          0,     12.975,  47481.658,    52.262,    -7.160,     1.138,   223.735, 3, 1.000E+00,  1.00,  78,  2.632E-03,  7.168E-03, -9.999E+09, -9.999E+09, -9.999E+09, -9.999E+09, -9.999E+09, -9.999E+09, -9.999E+09, -9.999E+09, -9.999E+09, -9.999E+09, -9.999E+09, -9.999E+09, -9.999E+09, -9.999E+09, -9.999E+09, -9.999E+09, 255
2019-092T04:59:24.006,   1,   3,   1,   120,   4,          0,     12.975,  47481.658,    52.252,    -7.158,     1.138,   222.526, 3, 1.000E+00,  1.00,  78,  2.644E-03,  7.168E-03, -9.999E+09, -9.999E+09, -9.999E+09, -9.999E+09, -9.999E+09, -9.999E+09, -9.999E+09, -9.999E+09, -9.999E+09, -9.999E+09, -9.999E+09, -9.999E+09, -9.999E+09, -9.999E+09, -9.999E+09, -9.999E+09, 255
2019-092T05:01:24.007,   1,   3,   1,   120,   4,          0,     12.975,  47481.658,    52.242,    -7.156,     1.138,   221.316, 3, 1.000E+00,  1.00,  78,  2.575E-03,  7.168E-03, -9.999E+09, -9.999E+09, -9.999E+09, -9.999E+09, -9.999E+09, -9.999E+09, -9.999E+09, -9.999E+09, -9.999E+09, -9.999E+09, -9.999E+09, -9.999E+09, -9.999E+09, -9.999E+09, -9.999E+09, -9.999E+09, 255
2019-092T05:03:24.009,   1,   3,   1,   120,   4,          0,     12.975,  47481.658,    52.232,    -7.154,     1.138,   220.107, 3, 1.000E+00,  1.00,  78,  3.033E-03,  7.168E-03, -9.999E+09, -9.999E+09, -9.999E+09, -9.999E+09, -9.999E+09, -9.999E+09, -9.999E+09, -9.999E+09, -9.999E+09, -9.999E+09, -9.999E+09, -9.999E+09, -9.999E+09, -9.999E+09, -9.999E+09, -9.999E+09, 255
2019-092T05:05:24.010,   1,   3,   1,   120,   4,          0,     12.975,  47481.658,    52.222,    -7.152,     1.138,   218.897, 3, 1.000E+00,  1.00,  78,  3.186E-03,  7.168E-03, -9.999E+09, -9.999E+09, -9.999E+09, -9.999E+09, -9.999E+09, -9.999E+09, -9.999E+09, -9.999E+09, -9.999E+09, -9.999E+09, -9.999E+09, -9.999E+09, -9.999E+09, -9.999E+09, -9.999E+09, -9.999E+09, 255
2019-092T05:07:24.012,   1,   3,   1,   120,   4,          0,     12.975,  47481.658,    52.212,    -7.150,     1.138,   217.688, 3, 1.000E+00,  1.00,  78,  2.851E-03,  7.168E-03, -9.999E+09, -9.999E+09, -9.999E+09, -9.999E+09, -9.999E+09, -9.999E+09, -9.999E+09, -9.999E+09, -9.999E+09, -9.999E+09, -9.999E+09, -9.999E+09, -9.999E+09, -9.999E+09, -9.999E+09, -9.999E+09, 255
2019-092T05:09:24.013,   1,   3,   1,   120,   4,          0,     12.975,  47481.658,    52.203,    -7.148,     1.138,   216.478, 3, 1.000E+00,  1.00,  78,  3.357E-03,  7.168E-03, -9.999E+09, -9.999E+09, -9.999E+09, -9.999E+09, -9.999E+09, -9.999E+09, -9.999E+09, -9.999E+09, -9.999E+09, -9.999E+09, -9.999E+09, -9.999E+09, -9.999E+09, -9.999E+09, -9.999E+09, -9.999E+09, 255
2019-092T05:11:24.015,   1,   3,   1,   120,   4,          0,     12.975,  47481.658,    52.193,    -7.146,     1.138,   215.269, 3, 1.000E+00,  1.00,  78,  3.320E-03,  7.169E-03, -9.999E+09, -9.999E+09, -9.999E+09, -9.999E+09, -9.999E+09, -9.999E+09, -9.999E+09, -9.999E+09, -9.999E+09, -9.999E+09, -9.999E+09, -9.999E+09, -9.999E+09, -9.999E+09, -9.999E+09, -9.999E+09, 255
2019-092T05:13:24.016,   1,   3,   1,   120,   4,          0,     12.975,  47481.658,    52.183,    -7.143,     1.138,   214.059, 3, 1.000E+00,  1.00,  78,  3.357E-03,  7.168E-03, -9.999E+09, -9.999E+09, -9.999E+09, -9.999E+09, -9.999E+09, -9.999E+09, -9.999E+09, -9.999E+09, -9.999E+09, -9.999E+09, -9.999E+09, -9.999E+09, -9.999E+09, -9.999E+09, -9.999E+09, -9.999E+09, 255